{"data":{"norad_id":62817,"intl_designator":"2025-018M","name":"STARLINK-32824","alt_names":[],"object_type":"PAYLOAD","status":"ACTIVE","operator":null,"country":"US","launch_date":"2025-01-24","launch_site_code":"AFWTR","launch_vehicle":null,"mission":null,"orbit_class":"UNKNOWN","rcs_meters":null,"size_class":null,"mass_kg":null,"dimensions":null,"purposes":["comms"],"wikipedia_slug":null,"has_3d_model":false,"image_url":null,"decayed_at":null,"tle_current":{"epoch":"2026-09-21T20:58:18.859296Z","epoch_age_seconds":49536,"freshness":"FRESH","line1":"1 62817U 25018M   26264.87382939  .00009784  00000+0  30033-3 0  9998","line2":"2 62817  53.1582 117.0208 0001397 131.4295 228.6828 15.34401525 94171","mean_motion":15.34401525,"eccentricity":0.0001397,"inclination_deg":53.1582,"raan_deg":117.0208,"arg_perigee_deg":131.4295,"mean_anomaly_deg":228.6828,"bstar":0.00030033,"rev_number":9417,"period_min":93.847664808597,"perigee_km":461.74304284113,"apogee_km":463.65437233783,"semimajor_km":6840.8357075895,"source":"CELESTRAK","updated_at":"2026-09-22T09:00:49.668807Z"}}}